Total_Precipitation_Accumulation
0.06 0.08 0.07 0.07 0.08 0.04 0.05 0.08 0.06 0.05 0.05 0.06 0.05 0.06 0.05 0.05 0.03 0.03 0.03 0.04 0.02 0.02 0.03 0.01 0.02 0.02 0.00 0.01 0.00 0.00 0.00 0.01 0.00 0.00 0.00 0.00 0.00 0.00 0.00 0.00 0.00 0.00 0.00 0.00 0.00 0.00 0.00 0.00 0.00 0.00 0.00 0.00 0.00 0.00 0.00 0.00 0.00 0.00 0.00 0.00 0.00 0.00 0.00 0.00 0.00 0.00 0.00 0.00 0.00 0.00 0.00 0.00 0.00 0.00 0.00 0.00 0.00 0.01 0.00 0.02 0.02 0.03 0.09 0.08 0.12 0.16 0.10 0.16
0.08 0.09 0.07 0.06 0.05 0.06 0.06 0.06 0.07 0.05 0.04 0.04 0.04 0.04 0.04 0.06 0.05 0.03 0.03 0.02 0.03 0.02 0.01 0.05 0.01 0.01 0.01 0.00 0.00 0.00 0.00 0.00 0.00 0.00 0.00 0.00 0.00 0.00 0.00 0.00 0.00 0.00 0.00 0.00 0.00 0.00 0.00 0.00 0.00 0.00 0.00 0.00 0.00 0.00 0.00 0.00 0.00 0.00 0.00 0.00 0.00 0.00 0.00 0.00 0.00 0.00 0.00 0.00 0.00 0.00 0.00 0.00 0.00 0.01 0.00 0.01 0.00 0.00 0.01 0.06 0.04 0.15 0.21 0.13 0.16 0.13 0.18 0.19
0.06 0.06 0.09 0.05 0.05 0.07 0.06 0.05 0.05 0.04 0.04 0.06 0.06 0.05 0.03 0.05 0.04 0.03 0.04 0.04 0.04 0.02 0.02 0.01 0.03 0.01 0.00 0.01 0.00 0.00 0.00 0.00 0.00 0.00 0.00 0.00 0.00 0.00 0.00 0.00 0.00 0.00 0.00 0.00 0.00 0.00 0.00 0.00 0.00 0.00 0.00 0.00 0.00 0.00 0.00 0.00 0.00 0.00 0.00 0.00 0.00 0.00 0.00 0.00 0.00 0.00 0.00 0.00 0.00 0.00 0.00 0.00 0.00 0.00 0.00 0.03 0.01 0.00 0.01 0.08 0.08 0.13 0.34 0.14 0.20 0.19 0.18 0.35
0.06 0.05 0.05 0.06 0.06 0.05 0.06 0.06 0.05 0.04 0.05 0.05 0.03 0.05 0.05 0.05 0.03 0.04 0.05 0.05 0.01 0.03 0.03 0.01 0.00 0.01 0.00 0.00 0.00 0.00 0.00 0.00 0.00 0.00 0.00 0.00 0.00 0.00 0.00 0.00 0.00 0.00 0.00 0.00 0.00 0.00 0.00 0.00 0.00 0.00 0.00 0.00 0.00 0.00 0.00 0.00 0.00 0.00 0.00 0.00 0.00 0.00 0.00 0.00 0.00 0.00 0.00 0.00 0.00 0.00 0.00 0.00 0.00 0.00 0.00 0.00 0.02 0.01 0.10 0.00 0.03 0.12 0.23 0.21 0.24 0.22 0.22 0.32
0.07 0.06 0.06 0.04 0.04 0.04 0.06 0.04 0.03 0.05 0.05 0.05 0.06 0.05 0.08 0.08 0.05 0.06 0.03 0.03 0.05 0.02 0.02 0.01 0.01 0.00 0.00 0.01 0.00 0.00 0.00 0.00 0.00 0.00 0.00 0.00 0.00 0.00 0.00 0.00 0.00 0.00 0.00 0.00 0.00 0.00 0.00 0.00 0.00 0.00 0.00 0.00 0.00 0.00 0.00 0.00 0.00 0.00 0.00 0.00 0.00 0.00 0.00 0.00 0.00 0.00 0.00 0.00 0.00 0.00 0.00 0.00 0.00 0.00 0.00 0.01 0.02 0.24 0.04 0.01 0.02 0.42 0.82 0.19 0.31 0.19 0.27 0.36
0.07 0.06 0.08 0.05 0.05 0.05 0.05 0.04 0.04 0.04 0.05 0.05 0.05 0.05 0.09 0.07 0.05 0.04 0.04 0.03 0.03 0.02 0.01 0.01 0.01 0.00 0.00 0.00 0.00 0.00 0.00 0.00 0.00 0.00 0.00 0.00 0.00 0.00 0.00 0.00 0.00 0.00 0.00 0.00 0.00 0.00 0.00 0.00 0.00 0.00 0.00 0.00 0.00 0.00 0.00 0.00 0.00 0.00 0.00 0.00 0.00 0.00 0.00 0.00 0.00 0.00 0.00 0.00 0.00 0.00 0.00 0.00 0.00 0.00 0.00 0.00 0.04 0.05 0.01 0.01 0.01 0.09 0.43 0.31 0.24 0.15 0.25 0.60
0.05 0.06 0.06 0.05 0.05 0.06 0.05 0.06 0.06 0.06 0.05 0.06 0.05 0.05 0.04 0.05 0.05 0.04 0.05 0.04 0.02 0.02 0.01 0.01 0.00 0.01 0.00 0.00 0.00 0.00 0.00 0.00 0.00 0.00 0.00 0.00 0.00 0.00 0.00 0.00 0.00 0.00 0.00 0.00 0.00 0.00 0.00 0.00 0.00 0.00 0.00 0.00 0.00 0.00 0.00 0.00 0.00 0.00 0.00 0.00 0.00 0.00 0.00 0.00 0.00 0.00 0.00 0.00 0.00 0.00 0.00 0.00 0.00 0.00 0.00 0.00 0.00 0.00 0.01 0.02 0.05 0.15 0.32 0.20 0.16 0.40 0.27 0.25
0.06 0.07 0.05 0.05 0.05 0.04 0.05 0.05 0.04 0.05 0.05 0.08 0.06 0.04 0.06 0.05 0.07 0.07 0.05 0.04 0.03 0.01 0.01 0.01 0.00 0.00 0.00 0.00 0.00 0.00 0.00 0.00 0.00 0.00 0.00 0.00 0.00 0.00 0.00 0.00 0.00 0.00 0.00 0.00 0.00 0.00 0.00 0.00 0.00 0.00 0.00 0.00 0.00 0.00 0.00 0.00 0.00 0.00 0.00 0.00 0.00 0.00 0.00 0.00 0.00 0.00 0.00 0.00 0.00 0.00 0.00 0.00 0.00 0.00 0.00 0.00 0.00 0.00 0.01 0.02 0.07 0.15 0.29 0.14 0.12 0.24 0.23 0.23
0.05 0.04 0.04 0.05 0.05 0.05 0.05 0.07 0.05 0.04 0.05 0.05 0.06 0.05 0.08 0.09 0.07 0.05 0.05 0.05 0.02 0.02 0.01 0.01 0.00 0.00 0.00 0.01 0.00 0.00 0.00 0.00 0.00 0.00 0.00 0.00 0.00 0.00 0.00 0.00 0.00 0.00 0.00 0.00 0.00 0.00 0.00 0.00 0.00 0.00 0.00 0.00 0.00 0.00 0.00 0.00 0.00 0.00 0.00 0.00 0.00 0.00 0.00 0.00 0.00 0.00 0.00 0.00 0.00 0.00 0.00 0.00 0.00 0.00 0.00 0.01 0.01 0.01 0.01 0.02 0.06 0.20 0.18 0.18 0.18 0.18 0.71 0.63
0.04 0.04 0.05 0.05 0.06 0.06 0.05 0.06 0.06 0.06 0.05 0.08 0.07 0.08 0.07 0.05 0.05 0.06 0.03 0.03 0.02 0.02 0.01 0.01 0.01 0.01 0.00 0.01 0.00 0.00 0.00 0.00 0.00 0.00 0.00 0.00 0.00 0.00 0.00 0.00 0.00 0.00 0.00 0.00 0.00 0.00 0.00 0.00 0.00 0.00 0.00 0.00 0.00 0.00 0.00 0.00 0.00 0.00 0.00 0.00 0.00 0.00 0.00 0.00 0.00 0.00 0.00 0.00 0.00 0.00 0.00 0.00 0.00 0.00 0.01 0.05 0.01 0.03 0.02 0.05 0.17 0.20 0.22 0.10 0.27 0.55 1.21 0.85
0.05 0.05 0.04 0.05 0.06 0.04 0.06 0.07 0.09 0.05 0.07 0.05 0.10 0.09 0.06 0.04 0.04 0.04 0.03 0.02 0.04 0.02 0.01 0.01 0.02 0.02 0.04 0.02 0.01 0.00 0.00 0.00 0.00 0.00 0.00 0.00 0.00 0.00 0.00 0.00 0.00 0.00 0.00 0.00 0.00 0.00 0.00 0.00 0.00 0.00 0.00 0.00 0.00 0.00 0.00 0.00 0.00 0.00 0.00 0.00 0.00 0.00 0.00 0.00 0.00 0.00 0.00 0.00 0.00 0.00 0.00 0.00 0.00 0.00 0.01 0.03 0.05 0.02 0.02 0.10 0.11 0.19 0.34 0.49 0.59 0.64 0.65 1.32
0.04 0.05 0.04 0.04 0.06 0.08 0.06 0.05 0.06 0.05 0.05 0.11 0.07 0.05 0.04 0.04 0.05 0.04 0.05 0.04 0.04 0.03 0.02 0.01 0.02 0.12 0.04 0.05 0.03 0.00 0.00 0.00 0.00 0.00 0.00 0.00 0.00 0.00 0.00 0.00 0.00 0.00 0.00 0.00 0.00 0.00 0.00 0.00 0.00 0.00 0.00 0.00 0.00 0.00 0.00 0.00 0.00 0.00 0.00 0.00 0.00 0.00 0.00 0.00 0.00 0.00 0.00 0.00 0.00 0.00 0.00 0.00 0.00 0.00 0.00 0.02 0.01 0.06 0.05 0.08 0.21 0.16 0.24 0.19 0.31 0.62 0.83 1.63
0.04 0.06 0.04 0.07 0.05 0.06 0.04 0.05 0.10 0.06 0.07 0.05 0.04 0.04 0.04 0.05 0.05 0.05 0.03 0.03 0.04 0.05 0.03 0.03 0.06 0.12 0.18 0.14 0.00 0.00 0.00 0.00 0.00 0.00 0.00 0.00 0.00 0.00 0.00 0.00 0.00 0.00 0.00 0.00 0.00 0.00 0.00 0.00 0.00 0.00 0.00 0.00 0.00 0.00 0.00 0.00 0.00 0.00 0.00 0.00 0.00 0.00 0.00 0.00 0.00 0.00 0.00 0.00 0.00 0.00 0.00 0.00 0.00 0.00 0.03 0.05 0.05 0.09 0.10 0.14 0.27 0.44 0.35 0.25 0.48 0.74 0.82 1.09
0.04 0.04 0.05 0.06 0.05 0.05 0.06 0.05 0.04 0.05 0.05 0.09 0.06 0.07 0.05 0.05 0.06 0.04 0.06 0.04 0.04 0.05 0.05 0.02 0.10 0.09 0.17 0.05 0.00 0.00 0.00 0.00 0.00 0.00 0.00 0.00 0.00 0.00 0.00 0.00 0.00 0.00 0.00 0.00 0.00 0.00 0.00 0.00 0.00 0.00 0.00 0.00 0.00 0.00 0.00 0.00 0.00 0.00 0.00 0.00 0.00 0.00 0.00 0.00 0.00 0.00 0.00 0.00 0.00 0.00 0.00 0.00 0.00 0.00 0.06 0.17 0.13 0.08 0.09 0.25 0.56 0.73 0.61 0.92 0.88 1.77 1.60 1.37
0.06 0.05 0.05 0.04 0.05 0.05 0.07 0.05 0.05 0.05 0.06 0.04 0.05 0.05 0.03 0.02 0.03 0.04 0.05 0.09 0.05 0.03 0.02 0.06 0.04 0.15 0.19 0.01 0.00 0.00 0.00 0.00 0.00 0.00 0.00 0.00 0.00 0.00 0.00 0.00 0.00 0.00 0.00 0.00 0.00 0.00 0.00 0.00 0.00 0.00 0.00 0.00 0.00 0.00 0.00 0.00 0.00 0.00 0.00 0.00 0.00 0.00 0.00 0.00 0.00 0.00 0.00 0.00 0.00 0.00 0.00 0.00 0.00 0.08 0.07 0.22 0.52 0.34 0.12 0.21 0.62 0.89 1.23 1.01 1.02 1.37 1.31 1.69
0.07 0.10 0.07 0.06 0.06 0.08 0.06 0.06 0.04 0.05 0.02 0.05 0.04 0.02 0.01 0.01 0.04 0.03 0.04 0.06 0.06 0.07 0.05 0.08 0.04 0.06 0.07 0.05 0.00 0.00 0.00 0.00 0.00 0.00 0.00 0.00 0.00 0.00 0.00 0.00 0.00 0.00 0.00 0.00 0.00 0.00 0.00 0.00 0.00 0.00 0.00 0.00 0.00 0.00 0.00 0.00 0.00 0.00 0.00 0.00 0.00 0.00 0.00 0.00 0.00 0.00 0.00 0.00 0.00 0.00 0.00 0.01 0.01 0.07 0.11 1.62 1.52 0.75 0.29 0.58 0.95 0.86 0.95 1.56 1.08 1.02 1.23 1.41
0.04 0.04 0.06 0.06 0.05 0.06 0.04 0.04 0.04 0.06 0.08 0.04 0.04 0.01 0.01 0.00 0.01 0.02 0.02 0.04 0.02 0.03 0.09 0.05 0.03 0.07 0.15 0.00 0.00 0.00 0.00 0.00 0.00 0.00 0.00 0.00 0.00 0.00 0.00 0.00 0.00 0.00 0.00 0.00 0.00 0.00 0.00 0.00 0.00 0.00 0.00 0.00 0.00 0.00 0.00 0.00 0.00 0.00 0.00 0.00 0.01 0.00 0.00 0.00 0.00 0.00 0.00 0.00 0.00 0.00 0.00 0.00 0.01 0.04 0.15 0.36 0.52 0.71 0.38 0.58 0.89 1.60 2.00 2.14 1.33 1.12 1.62 2.38
0.06 0.07 0.07 0.07 0.05 0.05 0.03 0.05 0.05 0.06 0.04 0.03 0.07 0.02 0.01 0.00 0.00 0.00 0.01 0.01 0.02 0.02 0.04 0.06 0.06 0.22 0.03 0.00 0.00 0.00 0.00 0.00 0.00 0.00 0.00 0.00 0.00 0.00 0.00 0.00 0.00 0.00 0.00 0.00 0.00 0.00 0.00 0.00 0.00 0.00 0.00 0.00 0.00 0.00 0.00 0.00 0.00 0.00 0.00 0.00 0.00 0.00 0.00 0.00 0.00 0.00 0.00 0.00 0.00 0.00 0.00 0.00 0.00 0.01 0.01 0.14 0.45 0.39 0.33 0.84 1.36 1.85 1.83 2.74 2.97 1.79 1.89 0.63
0.07 0.08 0.05 0.06 0.04 0.05 0.04 0.06 0.07 0.08 0.06 0.05 0.02 0.01 0.00 0.00 0.01 0.01 0.03 0.08 0.13 0.23 0.15 0.11 0.21 0.05 0.01 0.00 0.00 0.00 0.00 0.00 0.00 0.00 0.00 0.00 0.00 0.00 0.00 0.00 0.00 0.00 0.00 0.00 0.00 0.00 0.00 0.00 0.00 0.00 0.00 0.00 0.00 0.00 0.00 0.00 0.00 0.00 0.00 0.00 0.00 0.01 0.00 0.00 0.00 0.00 0.00 0.00 0.00 0.00 0.00 0.00 0.01 0.01 0.05 0.06 0.12 0.17 0.21 0.87 2.04 1.91 1.26 1.89 1.88 1.05 0.69 0.28
0.09 0.07 0.06 0.05 0.05 0.04 0.06 0.05 0.06 0.06 0.08 0.07 0.04 0.02 0.04 0.10 0.19 0.11 0.06 0.10 0.15 0.02 0.00 0.00 0.00 0.00 0.00 0.00 0.00 0.00 0.00 0.00 0.00 0.00 0.00 0.00 0.00 0.00 0.00 0.00 0.00 0.00 0.00 0.00 0.00 0.00 0.00 0.00 0.00 0.00 0.00 0.00 0.00 0.00 0.00 0.00 0.00 0.00 0.00 0.00 0.00 0.00 0.00 0.00 0.00 0.00 0.00 0.00 0.00 0.00 0.00 0.00 0.00 0.01 0.10 0.01 0.09 0.11 0.24 0.92 1.61 2.34 2.44 1.28 0.96 0.89 0.47 0.60
0.08 0.10 0.09 0.05 0.08 0.04 0.02 0.03 0.09 0.04 0.14 0.13 0.07 0.05 0.05 0.02 0.07 0.11 0.24 0.10 0.01 0.00 0.00 0.00 0.01 0.00 0.00 0.00 0.00 0.00 0.00 0.00 0.00 0.00 0.00 0.00 0.00 0.00 0.00 0.00 0.00 0.00 0.00 0.00 0.00 0.00 0.00 0.00 0.00 0.00 0.00 0.00 0.00 0.00 0.00 0.00 0.00 0.00 0.00 0.00 0.00 0.00 0.00 0.00 0.00 0.00 0.00 0.00 0.00 0.00 0.01 0.00 0.01 0.00 0.07 0.06 0.02 0.16 0.18 0.35 1.12 1.22 1.16 0.84 0.99 0.98 0.75 0.84
0.08 0.10 0.13 0.09 0.06 0.06 0.06 0.08 0.07 0.16 0.08 0.09 0.09 0.09 0.04 0.04 0.05 0.04 0.03 0.10 0.02 0.02 0.00 0.00 0.00 0.00 0.00 0.00 0.00 0.00 0.00 0.00 0.00 0.00 0.00 0.00 0.00 0.00 0.00 0.00 0.00 0.00 0.00 0.00 0.00 0.00 0.00 0.00 0.00 0.00 0.00 0.00 0.00 0.00 0.00 0.00 0.00 0.00 0.00 0.00 0.00 0.01 0.00 0.00 0.00 0.00 0.00 0.00 0.00 0.00 0.01 0.00 0.02 0.02 0.04 0.08 0.08 0.07 0.15 0.19 0.77 0.61 1.26 1.30 1.34 1.04 0.83 0.99
0.11 0.10 0.08 0.07 0.07 0.03 0.14 0.04 0.15 0.15 0.18 0.11 0.09 0.04 0.04 0.03 0.05 0.20 0.20 0.14 0.18 0.01 0.02 0.00 0.00 0.00 0.00 0.00 0.00 0.00 0.00 0.00 0.00 0.00 0.00 0.00 0.00 0.00 0.00 0.00 0.00 0.00 0.00 0.00 0.00 0.00 0.00 0.00 0.00 0.00 0.00 0.00 0.00 0.00 0.00 0.00 0.00 0.00 0.00 0.00 0.00 0.00 0.00 0.03 0.00 0.00 0.00 0.00 0.00 0.00 0.03 0.02 0.01 0.03 0.17 0.08 0.04 0.31 0.83 1.82 1.53 0.52 0.46 0.48 0.84 0.73 0.52 0.70
0.08 0.07 0.06 0.15 0.12 0.11 0.05 0.15 0.09 0.07 0.09 0.07 0.05 0.03 0.07 0.04 0.04 0.12 0.14 0.33 0.04 0.01 0.00 0.00 0.00 0.00 0.00 0.00 0.00 0.00 0.00 0.00 0.00 0.00 0.00 0.00 0.00 0.00 0.00 0.00 0.00 0.00 0.00 0.00 0.00 0.00 0.00 0.00 0.00 0.00 0.00 0.00 0.00 0.00 0.00 0.00 0.00 0.00 0.00 0.00 0.00 0.00 0.00 0.00 0.06 0.00 0.00 0.00 0.00 0.00 0.02 0.06 0.02 0.08 0.09 0.08 0.29 0.45 0.89 1.98 1.31 1.51 0.93 0.34 0.50 0.47 0.38 0.44
0.09 0.07 0.13 0.07 0.27 0.09 0.09 0.12 0.08 0.05 0.06 0.34 0.08 0.13 0.19 0.10 0.09 0.07 0.16 0.17 0.06 0.01 0.00 0.00 0.00 0.00 0.00 0.00 0.00 0.00 0.00 0.00 0.00 0.00 0.00 0.00 0.00 0.00 0.00 0.00 0.00 0.00 0.00 0.00 0.00 0.00 0.00 0.00 0.00 0.00 0.00 0.00 0.00 0.00 0.00 0.00 0.00 0.00 0.00 0.00 0.00 0.00 0.00 0.00 0.00 0.00 0.00 0.02 0.00 0.01 0.02 0.06 0.03 0.06 0.04 0.07 0.06 0.25 0.50 1.19 0.61 0.82 1.38 1.54 0.54 0.42 0.87 0.63
0.10 0.06 0.13 0.13 0.13 0.23 0.26 0.11 0.12 0.21 0.09 0.28 0.18 0.38 0.27 0.17 0.20 0.59 0.19 0.49 0.04 0.06 0.01 0.00 0.00 0.00 0.00 0.00 0.00 0.00 0.00 0.00 0.00 0.00 0.00 0.00 0.00 0.00 0.00 0.00 0.00 0.00 0.00 0.00 0.00 0.00 0.00 0.00 0.00 0.00 0.00 0.00 0.00 0.00 0.00 0.00 0.00 0.00 0.03 0.00 0.00 0.00 0.00 0.00 0.00 0.00 0.00 0.02 0.04 0.00 0.01 0.08 0.10 0.10 0.05 0.03 0.05 0.07 0.23 0.57 0.16 0.50 0.53 0.63 1.01 1.14 0.41 0.38
0.08 0.11 0.13 0.15 0.12 0.43 0.22 0.21 0.07 0.05 0.13 0.14 0.39 0.25 0.12 0.39 0.39 0.33 0.41 0.16 0.11 0.14 0.00 0.02 0.00 0.00 0.00 0.00 0.00 0.00 0.00 0.00 0.00 0.00 0.00 0.00 0.00 0.00 0.00 0.00 0.00 0.00 0.00 0.00 0.00 0.00 0.00 0.00 0.00 0.00 0.00 0.00 0.00 0.00 0.00 0.00 0.00 0.02 0.01 0.00 0.00 0.01 0.00 0.00 0.00 0.00 0.01 0.00 0.01 0.00 0.01 0.07 0.12 0.17 0.07 0.02 0.03 0.11 0.10 0.13 0.32 0.43 0.84 0.53 0.42 0.36 0.39 0.43
0.12 0.12 0.13 0.14 0.13 0.69 0.29 0.17 0.22 0.26 0.25 0.32 0.16 0.17 0.27 0.15 0.39 0.64 0.31 0.26 0.05 0.05 0.04 0.00 0.00 0.00 0.00 0.00 0.00 0.00 0.00 0.00 0.00 0.00 0.00 0.00 0.00 0.00 0.00 0.00 0.00 0.00 0.00 0.00 0.01 0.00 0.00 0.00 0.00 0.00 0.00 0.00 0.00 0.00 0.00 0.00 0.00 0.01 0.00 0.00 0.00 0.00 0.02 0.00 0.00 0.01 0.05 0.01 0.04 0.00 0.01 0.03 0.10 0.11 0.05 0.05 0.12 0.17 0.17 0.15 0.27 0.34 0.50 1.03 0.76 0.50 0.37 0.40
0.09 0.15 0.11 0.11 0.11 0.35 0.23 0.25 0.17 0.13 0.62 0.10 0.39 0.12 0.29 0.51 0.37 0.86 0.66 0.23 0.69 0.07 0.01 0.15 0.00 0.00 0.00 0.00 0.00 0.00 0.00 0.00 0.00 0.00 0.00 0.00 0.00 0.00 0.00 0.00 0.00 0.00 0.00 0.00 0.00 0.01 0.00 0.00 0.00 0.00 0.00 0.00 0.00 0.00 0.00 0.00 0.01 0.00 0.00 0.00 0.00 0.00 0.00 0.00 0.02 0.00 0.09 0.00 0.04 0.05 0.10 0.02 0.12 0.17 0.20 0.20 0.12 0.25 0.23 0.30 0.30 0.18 0.25 0.34 0.35 0.58 0.42 0.51
0.11 0.09 0.09 0.13 0.24 0.22 0.57 0.32 0.31 0.21 0.26 0.41 0.36 0.26 0.19 0.40 1.19 0.56 0.72 0.13 0.62 0.52 0.07 0.12 0.00 0.01 0.00 0.00 0.00 0.00 0.00 0.00 0.00 0.00 0.00 0.00 0.00 0.00 0.00 0.00 0.00 0.00 0.00 0.00 0.00 0.00 0.00 0.00 0.00 0.00 0.00 0.00 0.00 0.00 0.00 0.00 0.00 0.00 0.00 0.00 0.00 0.00 0.03 0.01 0.00 0.05 0.06 0.03 0.03 0.03 0.02 0.01 0.18 0.18 0.12 0.26 0.22 0.10 0.24 0.22 0.31 0.16 0.13 0.29 0.25 0.63 0.41 0.57
0.16 0.22 0.21 0.49 0.28 0.21 0.21 0.28 0.25 0.13 0.40 0.59 0.27 0.27 0.49 0.86 0.90 0.61 0.21 0.14 0.26 0.49 0.14 0.05 0.02 0.01 0.02 0.00 0.01 0.00 0.00 0.00 0.00 0.00 0.00 0.00 0.00 0.00 0.00 0.02 0.01 0.01 0.00 0.00 0.00 0.00 0.00 0.00 0.00 0.00 0.00 0.00 0.00 0.00 0.00 0.00 0.00 0.00 0.00 0.02 0.00 0.02 0.00 0.01 0.05 0.04 0.09 0.01 0.03 0.03 0.01 0.02 0.14 0.27 0.19 0.17 0.10 0.19 0.11 0.18 0.20 0.24 0.22 0.20 0.36 0.52 0.64 0.64
0.13 0.16 0.37 0.31 0.09 0.43 0.26 0.26 0.49 0.33 0.51 0.38 0.43 0.33 0.72 0.85 0.50 0.55 0.17 0.24 0.72 0.77 0.49 0.35 0.12 0.05 0.04 0.03 0.00 0.00 0.00 0.00 0.00 0.00 0.00 0.00 0.00 0.00 0.00 0.00 0.00 0.00 0.01 0.01 0.04 0.00 0.00 0.00 0.00 0.00 0.00 0.00 0.00 0.00 0.00 0.00 0.00 0.00 0.00 0.02 0.21 0.19 0.02 0.10 0.05 0.03 0.00 0.03 0.08 0.00 0.01 0.03 0.02 0.21 0.41 0.20 0.11 0.16 0.15 0.12 0.13 0.14 0.17 0.20 0.30 0.38 0.59 0.61
0.08 0.08 0.29 0.16 0.45 0.37 0.23 0.57 0.31 0.34 0.36 0.38 0.40 0.50 0.63 0.95 0.45 0.12 0.23 0.32 1.33 0.64 0.40 0.33 0.30 0.08 0.14 0.06 0.02 0.00 0.00 0.02 0.02 0.00 0.00 0.00 0.00 0.00 0.00 0.01 0.00 0.00 0.05 0.06 0.02 0.00 0.00 0.00 0.00 0.00 0.00 0.00 0.00 0.00 0.02 0.01 0.00 0.00 0.03 0.08 0.08 0.17 0.07 0.02 0.07 0.02 0.06 0.02 0.02 0.05 0.02 0.05 0.23 0.21 0.25 0.44 0.19 0.16 0.13 0.38 0.33 0.13 0.14 0.15 0.22 0.41 0.39 0.62
0.07 0.13 0.15 0.14 0.18 0.08 0.11 0.30 0.22 0.27 0.18 0.34 0.55 0.50 1.31 0.67 0.44 0.48 0.27 0.62 1.38 0.59 0.35 0.51 0.20 0.08 0.03 0.10 0.04 0.01 0.02 0.01 0.00 0.00 0.00 0.02 0.01 0.02 0.00 0.00 0.00 0.02 0.00 0.01 0.01 0.02 0.07 0.10 0.00 0.00 0.01 0.00 0.00 0.00 0.01 0.02 0.01 0.01 0.00 0.00 0.08 0.11 0.07 0.02 0.05 0.05 0.03 0.18 0.07 0.05 0.01 0.09 0.15 0.67 0.39 0.47 0.30 0.14 0.11 0.25 0.48 0.49 0.21 0.24 0.24 0.26 0.71 1.24
0.11 0.11 0.07 0.17 0.16 0.14 0.14 0.14 0.53 0.31 0.17 0.30 0.50 0.72 0.54 0.33 0.43 0.44 0.43 0.45 0.74 0.63 0.39 0.27 0.22 0.08 0.12 0.01 0.05 0.01 0.00 0.11 0.00 0.01 0.00 0.00 0.04 0.01 0.01 0.00 0.00 0.00 0.01 0.02 0.03 0.01 0.00 0.02 0.01 0.00 0.00 0.00 0.00 0.00 0.00 0.00 0.01 0.01 0.00 0.00 0.03 0.02 0.00 0.10 0.24 0.03 0.15 0.08 0.06 0.05 0.06 0.36 0.92 0.98 0.57 0.27 0.19 0.07 0.17 0.31 0.29 0.39 0.77 0.65 0.69 0.68 0.52 0.87
0.09 0.46 0.05 0.18 0.17 0.33 0.09 0.20 0.43 0.49 0.19 0.38 0.73 0.69 0.49 0.44 0.74 0.52 0.82 0.46 1.29 0.85 0.45 0.29 0.35 0.24 0.10 0.04 0.01 0.05 0.02 0.09 0.03 0.03 0.03 0.00 0.01 0.03 0.00 0.00 0.00 0.00 0.04 0.00 0.12 0.04 0.01 0.12 0.00 0.01 0.00 0.00 0.00 0.00 0.00 0.00 0.13 0.18 0.00 0.05 0.02 0.01 0.02 0.04 0.00 0.01 0.00 0.00 0.04 0.01 0.12 0.32 0.32 1.35 0.57 0.62 0.27 0.26 0.27 0.36 0.21 0.39 0.59 0.99 1.26 0.75 0.73 1.04
0.43 0.05 0.25 0.05 0.07 0.08 0.16 0.62 0.40 0.16 0.17 0.43 0.75 0.62 0.28 0.29 0.38 0.36 0.52 0.61 1.11 0.96 0.70 0.99 0.40 0.41 0.18 0.10 0.05 0.01 0.10 0.01 0.16 0.02 0.15 0.00 0.05 0.01 0.01 0.00 0.00 0.00 0.00 0.00 0.06 0.00 0.06 0.23 0.01 0.02 0.00 0.00 0.00 0.00 0.00 0.00 0.00 0.00 0.02 0.03 0.00 0.00 0.02 0.02 0.12 0.04 0.01 0.02 0.13 0.03 0.09 0.56 0.10 1.20 1.17 0.74 0.55 1.05 0.95 0.56 0.22 0.45 0.71 0.68 0.80 1.59 1.46 1.87
0.37 0.20 0.09 0.11 0.06 0.02 0.08 0.35 0.10 0.18 0.26 0.44 0.57 0.43 0.33 0.29 0.36 0.28 0.43 0.53 0.70 0.89 1.17 1.07 0.77 0.53 0.16 0.08 0.03 0.03 0.06 0.06 0.30 0.03 0.19 0.02 0.22 0.00 0.01 0.01 0.00 0.00 0.00 0.00 0.01 0.07 0.00 0.09 0.03 0.00 0.00 0.00 0.00 0.00 0.00 0.00 0.00 0.00 0.07 0.00 0.02 0.06 0.05 0.03 0.00 0.03 0.02 0.01 0.09 0.08 0.12 0.11 0.15 0.58 0.57 0.99 0.58 1.00 1.06 0.77 0.36 0.30 0.36 0.49 0.84 1.01 1.35 2.23
0.24 0.22 0.29 0.09 0.03 0.18 0.04 0.05 0.04 0.22 0.55 0.42 0.34 0.41 0.22 0.22 0.28 0.24 0.29 0.46 0.62 0.91 0.70 0.71 0.90 0.44 0.77 0.08 0.07 0.04 0.06 0.13 0.08 0.14 0.16 0.21 0.23 0.03 0.11 0.01 0.04 0.00 0.00 0.00 0.00 0.01 0.00 0.02 0.07 0.00 0.00 0.02 0.00 0.00 0.02 0.00 0.00 0.00 0.00 0.00 0.00 0.00 0.05 0.08 0.02 0.20 0.01 0.18 0.04 0.22 0.12 0.28 0.16 0.43 0.23 0.39 0.24 0.34 0.32 0.44 0.42 0.42 0.40 0.60 1.27 0.95 0.91 1.33
0.35 0.45 0.48 0.15 0.03 0.05 0.05 0.03 0.14 0.42 0.51 0.47 0.20 0.15 0.16 0.16 0.11 0.16 0.29 0.39 0.67 0.62 0.48 0.48 0.51 0.81 0.17 0.10 0.08 0.11 0.13 0.09 0.09 0.22 0.10 0.40 0.07 0.05 0.08 0.00 0.08 0.00 0.00 0.00 0.00 0.00 0.03 0.01 0.11 0.06 0.00 0.00 0.04 0.00 0.01 0.01 0.04 0.00 0.00 0.00 0.01 0.01 0.03 0.01 0.10 0.03 0.19 0.13 0.09 0.12 0.16 0.49 0.49 0.19 0.14 0.27 0.30 0.36 0.56 0.71 0.79 0.71 0.82 0.94 1.10 1.44 1.35 1.47
0.21 0.62 0.76 0.48 0.32 0.04 0.13 0.18 0.31 0.37 0.23 0.22 0.15 0.16 0.11 0.16 0.14 0.17 0.20 0.23 0.38 0.37 0.39 0.38 0.41 0.56 0.42 0.15 0.12 0.03 0.05 0.05 0.14 0.28 0.07 0.11 0.03 0.23 0.00 0.05 0.00 0.07 0.00 0.02 0.01 0.04 0.00 0.00 0.03 0.01 0.03 0.01 0.01 0.00 0.01 0.00 0.00 0.00 0.01 0.05 0.05 0.09 0.16 0.10 0.10 0.00 0.08 0.04 0.11 0.10 0.19 0.57 0.30 0.24 0.32 0.36 0.50 0.51 0.57 0.61 0.82 1.04 1.17 1.03 1.49 1.37 1.45 1.60
0.60 0.68 0.99 0.80 0.44 0.08 0.11 0.44 0.25 0.16 0.12 0.14 0.17 0.11 0.18 0.09 0.12 0.18 0.16 0.15 0.21 0.50 0.28 0.37 0.30 0.43 0.25 0.08 0.10 0.08 0.05 0.07 0.08 0.08 0.06 0.27 0.36 0.18 0.17 0.00 0.01 0.03 0.07 0.04 0.01 0.03 0.02 0.01 0.06 0.01 0.11 0.07 0.02 0.02 0.00 0.00 0.00 0.00 0.00 0.02 0.00 0.04 0.01 0.14 0.19 0.27 0.09 0.07 0.04 0.23 0.10 0.52 0.42 0.53 0.60 0.44 0.54 0.49 0.67 1.04 0.80 0.58 0.77 0.96 0.80 0.89 0.96 0.74
0.41 0.97 1.82 0.93 0.53 0.20 0.22 0.24 0.20 0.19 0.28 0.14 0.07 0.11 0.13 0.12 0.11 0.13 0.14 0.16 0.29 0.25 0.26 0.38 0.33 0.26 0.15 0.18 0.09 0.12 0.04 0.09 0.04 0.22 0.19 0.19 0.39 0.15 0.03 0.01 0.01 0.00 0.00 0.08 0.02 0.03 0.00 0.01 0.01 0.04 0.15 0.03 0.02 0.00 0.00 0.00 0.00 0.00 0.00 0.00 0.00 0.06 0.09 0.09 0.13 0.21 0.13 0.12 0.07 0.18 0.07 0.90 0.32 0.56 0.99 0.61 0.45 0.49 0.48 0.62 0.62 0.78 0.73 0.52 0.73 0.50 1.14 1.10
0.65 1.94 1.10 0.98 0.52 0.36 0.47 0.38 0.21 0.09 0.16 0.12 0.17 0.26 0.26 0.16 0.15 0.18 0.17 0.17 0.27 0.29 0.32 0.31 0.10 0.23 0.30 0.22 0.11 0.30 0.08 0.13 0.03 0.11 0.14 0.07 0.24 0.04 0.01 0.01 0.01 0.04 0.08 0.40 0.08 0.08 0.08 0.02 0.01 0.13 0.07 0.18 0.15 0.04 0.01 0.00 0.00 0.01 0.02 0.01 0.00 0.01 0.04 0.10 0.08 0.14 0.01 0.05 0.19 0.15 0.22 0.54 0.54 0.71 0.54 0.47 0.42 0.42 0.69 0.56 0.46 0.74 0.68 0.51 0.39 0.52 0.54 0.61
0.88 1.45 1.40 1.11 0.57 0.44 0.49 0.60 0.28 0.14 0.21 0.16 0.23 0.26 0.37 0.34 0.21 0.14 0.16 0.19 0.20 0.22 0.17 0.19 0.10 0.14 0.26 0.07 0.06 0.27 0.06 0.15 0.11 0.17 0.07 0.22 0.30 0.00 0.01 0.02 0.01 0.13 0.10 0.02 0.05 0.03 0.05 0.08 0.02 0.09 0.24 0.21 0.23 0.23 0.21 0.12 0.05 0.02 0.02 0.01 0.05 0.02 0.08 0.15 0.05 0.06 0.05 0.07 0.12 0.10 0.59 0.52 0.71 0.64 0.61 0.33 0.32 0.41 0.44 0.48 0.55 1.05 1.12 0.70 0.68 0.96 0.75 0.80
1.31 1.63 1.08 1.14 1.43 0.98 0.27 0.35 0.29 0.38 0.19 0.24 0.13 0.21 0.19 0.46 0.27 0.18 0.14 0.25 0.17 0.19 0.29 0.12 0.03 0.05 0.14 0.19 0.11 0.44 0.15 0.08 0.13 0.06 0.06 0.30 0.18 0.07 0.03 0.01 0.04 0.03 0.04 0.02 0.08 0.10 0.27 0.05 0.10 0.10 0.28 0.47 0.27 0.24 0.14 0.04 0.03 0.06 0.07 0.05 0.06 0.00 0.03 0.07 0.12 0.15 0.12 0.15 0.11 0.10 0.17 0.65 0.77 0.57 0.43 0.49 0.31 0.57 0.60 0.50 0.39 0.35 0.41 0.47 0.56 0.59 0.71 0.56
1.02 1.34 1.14 0.68 0.56 0.85 0.63 0.31 0.27 0.25 0.21 0.26 0.31 0.21 0.30 0.36 0.39 0.31 0.14 0.36 0.17 0.18 0.20 0.16 0.08 0.14 0.15 0.10 0.07 0.16 0.17 0.12 0.04 0.05 0.20 0.35 0.25 0.27 0.02 0.16 0.05 0.00 0.01 0.03 0.08 0.21 0.60 0.35 0.17 0.05 0.22 0.11 0.03 0.14 0.03 0.04 0.12 0.11 0.13 0.06 0.02 0.05 0.04 0.08 0.03 0.13 0.26 0.16 0.26 0.23 0.15 0.19 0.45 0.34 0.29 0.42 0.47 0.54 0.58 0.32 0.31 0.43 0.58 0.58 0.49 0.42 0.56 0.83
1.23 1.20 1.06 0.95 0.75 0.51 0.43 0.75 0.33 0.42 0.27 0.27 0.57 0.17 0.24 0.40 0.37 0.48 0.27 0.21 0.21 0.08 0.29 0.13 0.13 0.10 0.05 0.10 0.09 0.16 0.26 0.10 0.12 0.05 0.19 0.14 0.11 0.35 0.52 0.20 0.26 0.08 0.05 0.08 0.03 0.05 0.21 0.23 0.36 0.32 0.24 0.23 0.11 0.03 0.09 0.05 0.09 0.13 0.11 0.18 0.16 0.11 0.07 0.13 0.10 0.12 0.17 0.11 0.46 0.43 0.50 0.15 0.30 0.32 0.35 0.28 0.20 0.23 0.25 0.31 0.29 0.50 0.44 0.49 0.50 0.65 0.62 0.48
1.67 1.24 1.24 0.64 0.48 0.53 0.28 0.36 0.29 0.34 0.60 0.43 0.32 0.19 0.28 0.25 0.46 0.38 0.44 0.69 0.44 0.41 0.48 0.29 0.21 0.08 0.04 0.13 0.13 0.29 0.18 0.17 0.08 0.24 0.25 0.20 0.32 0.31 0.49 0.38 0.22 0.12 0.04 0.18 0.06 0.10 0.10 0.36 0.41 0.38 0.39 0.49 0.22 0.15 0.11 0.20 0.17 0.10 0.03 0.16 0.19 0.20 0.20 0.08 0.06 0.12 0.17 0.12 0.12 0.11 0.14 0.21 0.40 0.45 0.31 0.36 0.35 0.38 0.41 0.18 0.27 0.50 0.55 0.45 0.60 0.36 0.26 0.30
1.50 1.86 1.50 0.46 0.59 0.53 0.36 0.65 0.60 0.48 0.43 0.22 0.32 0.27 0.26 0.35 0.37 0.49 0.41 0.52 0.64 0.56 0.65 0.53 0.25 0.09 0.05 0.35 0.25 0.26 0.41 0.29 0.41 0.22 0.19 0.25 0.45 0.22 0.34 0.53 0.77 0.13 0.07 0.18 0.11 0.23 0.31 0.62 0.14 0.38 0.37 0.31 0.46 0.26 0.22 0.37 0.14 0.17 0.02 0.04 0.04 0.12 0.05 0.07 0.12 0.08 0.07 0.17 0.13 0.02 0.02 0.17 0.34 0.20 0.28 0.38 0.25 0.20 0.17 0.21 0.20 0.23 0.32 0.53 0.35 0.48 0.49 0.31
1.33 1.39 1.27 0.79 0.51 0.44 0.43 0.56 0.48 0.54 0.63 0.51 0.32 0.43 0.28 0.30 0.35 0.45 0.73 0.32 0.42 0.71 0.63 0.57 0.28 0.19 0.06 0.12 0.11 0.19 0.29 0.33 0.19 0.27 0.62 0.23 0.28 0.29 0.16 0.41 0.04 0.34 0.20 0.38 0.19 0.53 0.14 1.01 0.39 0.77 0.36 0.51 0.45 0.50 0.39 0.49 0.32 0.33 0.21 0.09 0.06 0.22 0.18 0.08 0.18 0.26 0.21 0.28 0.28 0.24 0.04 0.16 0.47 0.21 0.26 0.23 0.22 0.18 0.16 0.18 0.19 0.47 0.29 0.25 0.34 0.21 0.31 0.50
0.86 0.95 0.78 0.89 0.35 0.06 0.35 0.38 0.64 0.43 0.51 0.60 0.70 0.55 0.32 0.46 0.21 0.25 0.46 0.12 0.37 0.28 0.23 0.39 0.28 0.38 0.47 0.28 0.31 0.46 0.28 0.27 0.35 0.20 0.11 0.20 0.24 0.53 0.06 0.29 0.24 0.43 0.34 0.10 0.27 0.35 0.44 0.20 0.35 0.37 0.33 0.47 0.69 0.57 0.59 0.39 0.44 0.53 0.37 0.18 0.15 0.22 0.20 0.12 0.12 0.13 0.15 0.32 0.72 0.46 0.24 0.15 0.23 0.18 0.21 0.26 0.19 0.22 0.18 0.18 0.18 0.13 0.16 0.10 0.11 0.14 0.22 0.26